Data start date =,9/2/1949
Data end date/time =,5/1/2024 12:00
Vertical Datum =,NGVD29
""
Date/Time,Homme_Dam
,Elev
UTC,ft
,Ave
9/3/1949 12:00,1035.03
9/4/1949 12:00,1035.50
9/5/1949 12:00,1036.08
9/6/1949 12:00,1036.48
9/7/1949 12:00,1036.96
9/8/1949 12:00,1037.21
9/9/1949 12:00,1037.48
9/10/1949 12:00,1037.75
9/11/1949 12:00,1037.88
9/12/1949 12:00,1038.00
9/13/1949 12:00,1038.35
9/14/1949 12:00,1038.65
9/15/1949 12:00,1038.85
9/16/1949 12:00,1039.00
9/17/1949 12:00,1039.21
9/18/1949 12:00,1039.27
9/19/1949 12:00,1039.35
9/20/1949 12:00,1039.40
9/21/1949 12:00,1039.55
9/22/1949 12:00,1039.60
9/23/1949 12:00,1039.80
9/24/1949 12:00,1039.85
9/25/1949 12:00,1039.92
9/26/1949 12:00,1040.00
9/27/1949 12:00,1040.15
9/28/1949 12:00,1040.28
9/29/1949 12:00,1040.40
9/30/1949 12:00,1040.50
10/1/1949 12:00,1040.62
10/2/1949 12:00,1040.82
10/3/1949 12:00,1041.00
10/4/1949 12:00,1041.09
10/5/1949 12:00,1041.20
10/6/1949 12:00,1041.35
10/7/1949 12:00,1041.45
10/8/1949 12:00,1041.55
10/9/1949 12:00,1041.90
10/10/1949 12:00,1042.28
10/11/1949 12:00,1043.87
10/12/1949 12:00,1044.08
10/13/1949 12:00,1044.13
10/14/1949 12:00,1044.29
10/15/1949 12:00,1044.49
10/16/1949 12:00,1044.55
10/17/1949 12:00,1044.61
10/18/1949 12:00,1044.67
10/19/1949 12:00,1044.77
10/20/1949 12:00,1044.87
10/21/1949 12:00,1045.10
10/22/1949 12:00,1045.32
10/23/1949 12:00,1045.51
10/24/1949 12:00,1045.70
10/25/1949 12:00,1045.80
10/26/1949 12:00,1045.90
10/27/1949 12:00,1045.94
10/28/1949 12:00,1046.05
10/29/1949 12:00,1046.15
10/30/1949 12:00,1046.25
10/31/1949 12:00,1046.39
11/1/1949 12:00,1046.48
11/2/1949 12:00,1046.50
11/3/1949 12:00,1046.55
11/4/1949 12:00,1046.65
11/5/1949 12:00,1046.61
11/6/1949 12:00,1046.56
11/7/1949 12:00,1046.47
11/8/1949 12:00,1046.37
11/9/1949 12:00,1046.33
11/10/1949 12:00,1046.24
11/11/1949 12:00,1046.28
11/12/1949 12:00,1046.33
11/13/1949 12:00,1046.45
11/14/1949 12:00,1046.57
11/15/1949 12:00,1046.67
11/16/1949 12:00,1046.80
11/17/1949 12:00,1046.88
11/18/1949 12:00,1047.00
11/19/1949 12:00,1047.05
11/20/1949 12:00,1047.12
11/21/1949 12:00,1047.21
11/22/1949 12:00,1047.27
11/23/1949 12:00,1047.38
11/24/1949 12:00,1047.48
11/25/1949 12:00,1047.62
11/26/1949 12:00,1047.77
11/27/1949 12:00,1047.85
11/28/1949 12:00,1047.92
11/29/1949 12:00,1047.96
11/30/1949 12:00,1048.00
12/1/1949 12:00,1048.04
12/2/1949 12:00,1048.06
12/3/1949 12:00,1048.20
12/4/1949 12:00,1048.20
12/5/1949 12:00,1048.25
12/6/1949 12:00,1048.25
12/7/1949 12:00,1048.25
12/8/1949 12:00,1048.25
12/9/1949 12:00,1048.25
12/10/1949 12:00,1048.25
12/11/1949 12:00,1048.25
12/12/1949 12:00,1048.25
12/13/1949 12:00,1048.25
12/14/1949 12:00,1048.25
12/15/1949 12:00,1048.25
12/16/1949 12:00,1048.25
12/17/1949 12:00,1048.25
12/18/1949 12:00,1048.25
12/19/1949 12:00,1048.25
12/20/1949 12:00,1048.25
12/21/1949 12:00,1048.25
12/22/1949 12:00,1048.25
12/23/1949 12:00,1048.25
12/24/1949 12:00,1048.25
12/25/1949 12:00,1048.25
12/26/1949 12:00,1048.25
12/27/1949 12:00,1048.25
12/28/1949 12:00,1048.25
12/29/1949 12:00,1048.25
12/30/1949 12:00,1048.25
12/31/1949 12:00,1048.25
1/1/1950 12:00,1048.25
1/2/1950 12:00,1048.25
1/3/1950 12:00,1048.25
1/4/1950 12:00,1048.25
1/5/1950 12:00,1048.25
1/6/1950 12:00,1048.25
1/7/1950 12:00,1048.25
1/8/1950 12:00,1048.25
1/9/1950 12:00,1048.25
1/10/1950 12:00,1048.25
1/11/1950 12:00,1048.25
1/12/1950 12:00,1048.25
1/13/1950 12:00,1048.25
1/14/1950 12:00,1048.25
1/15/1950 12:00,1048.25
1/16/1950 12:00,1048.25
1/17/1950 12:00,1048.25
1/18/1950 12:00,1048.25
1/19/1950 12:00,1048.25
1/20/1950 12:00,1048.25
1/21/1950 12:00,1048.25
1/22/1950 12:00,1048.25
1/23/1950 12:00,1048.25
1/24/1950 12:00,1048.25
1/25/1950 12:00,1048.25
1/26/1950 12:00,1048.25
1/27/1950 12:00,1048.25
1/28/1950 12:00,1048.25
1/29/1950 12:00,1048.25
1/30/1950 12:00,1048.25
1/31/1950 12:00,1048.25
2/1/1950 12:00,1048.25
2/2/1950 12:00,1048.25
2/3/1950 12:00,1048.25
2/4/1950 12:00,1048.25
2/5/1950 12:00,1048.25
2/6/1950 12:00,1048.25
2/7/1950 12:00,1048.25
2/8/1950 12:00,1048.25
2/9/1950 12:00,1048.25
2/10/1950 12:00,1048.25
2/11/1950 12:00,1048.25
2/12/1950 12:00,1048.25
2/13/1950 12:00,1048.25
2/14/1950 12:00,1048.25
2/15/1950 12:00,1048.25
2/16/1950 12:00,1048.25
2/17/1950 12:00,1048.25
2/18/1950 12:00,1048.25
2/19/1950 12:00,1048.25
2/20/1950 12:00,1048.25
2/21/1950 12:00,1048.25
2/22/1950 12:00,1048.25
2/23/1950 12:00,1048.25
2/24/1950 12:00,1048.25
2/25/1950 12:00,1048.25
2/26/1950 12:00,1048.25
2/27/1950 12:00,1048.25
2/28/1950 12:00,1048.25
3/1/1950 12:00,1048.25
3/2/1950 12:00,1048.25
3/3/1950 12:00,1048.25
3/4/1950 12:00,1048.25
3/5/1950 12:00,1048.25
3/6/1950 12:00,1048.25
3/7/1950 12:00,1048.25
3/8/1950 12:00,1048.25
3/9/1950 12:00,1048.25
3/10/1950 12:00,1048.25
3/11/1950 12:00,1048.25
3/12/1950 12:00,1048.25
3/13/1950 12:00,1048.25
3/14/1950 12:00,1048.25
3/15/1950 12:00,1048.25
3/16/1950 12:00,1048.25
3/17/1950 12:00,1048.38
3/18/1950 12:00,1048.40
3/19/1950 12:00,1048.40
3/20/1950 12:00,1048.40
3/21/1950 12:00,1048.38
3/22/1950 12:00,1048.42
3/23/1950 12:00,1048.45
3/24/1950 12:00,1048.50
3/25/1950 12:00,1048.66
3/26/1950 12:00,1048.62
3/27/1950 12:00,1048.62
3/28/1950 12:00,1048.64
3/29/1950 12:00,1048.66
3/30/1950 12:00,1048.68
3/31/1950 12:00,1048.70
4/1/1950 12:00,1048.67
4/2/1950 12:00,1048.68
4/3/1950 12:00,1048.68
4/4/1950 12:00,1048.62
4/5/1950 12:00,1048.68
4/6/1950 12:00,1048.68
4/7/1950 12:00,1048.66
4/8/1950 12:00,1048.70
4/9/1950 12:00,1048.76
4/10/1950 12:00,1048.78
4/11/1950 12:00,1048.79
4/12/1950 12:00,1048.86
4/13/1950 12:00,1048.88
4/14/1950 12:00,1048.91
4/15/1950 12:00,1048.89
4/16/1950 12:00,1049.04
4/17/1950 12:00,1060.90
4/18/1950 12:00,1068.60
4/19/1950 12:00,1066.95
4/20/1950 12:00,1063.50
4/21/1950 12:00,1062.68
4/22/1950 12:00,1063.00
4/23/1950 12:00,1061.70
4/24/1950 12:00,1059.50
4/25/1950 12:00,1046.92
4/26/1950 12:00,1044.44
4/27/1950 12:00,1041.96
4/28/1950 12:00,1039.40
4/29/1950 12:00,1039.55
4/30/1950 12:00,1039.65
5/1/1950 12:00,1039.75
5/2/1950 12:00,1039.35
5/3/1950 12:00,1039.45
5/4/1950 12:00,1039.00
5/5/1950 12:00,1039.65
5/6/1950 12:00,1040.43
5/7/1950 12:00,1041.44
5/8/1950 12:00,1044.33
5/9/1950 12:00,1040.52
5/10/1950 12:00,1039.90
5/11/1950 12:00,1039.66
5/12/1950 12:00,1038.67
5/13/1950 12:00,1038.11
5/14/1950 12:00,1037.84
5/15/1950 12:00,1037.45
5/16/1950 12:00,1037.02
5/17/1950 12:00,1036.84
5/18/1950 12:00,1036.69
5/19/1950 12:00,1036.88
5/20/1950 12:00,1036.96
5/21/1950 12:00,1036.65
5/22/1950 12:00,1036.43
5/23/1950 12:00,1036.26
5/24/1950 12:00,1036.26
5/25/1950 12:00,1036.02
5/26/1950 12:00,1035.94
5/27/1950 12:00,1035.83
5/28/1950 12:00,1036.44
5/29/1950 12:00,1036.22
5/30/1950 12:00,1036.09
5/31/1950 12:00,1036.03
6/1/1950 12:00,1036.07
6/2/1950 12:00,1035.87
6/3/1950 12:00,1035.85
6/4/1950 12:00,1035.80
6/5/1950 12:00,1035.77
6/6/1950 12:00,1035.77
6/7/1950 12:00,1035.74
6/8/1950 12:00,1035.72
6/9/1950 12:00,1035.69
6/10/1950 12:00,1035.68
6/11/1950 12:00,1035.68
6/12/1950 12:00,1035.68
6/13/1950 12:00,1035.68
6/14/1950 12:00,1035.57
6/15/1950 12:00,1035.54
6/16/1950 12:00,1035.54
6/17/1950 12:00,1035.54
6/18/1950 12:00,1035.53
6/19/1950 12:00,1035.53
6/20/1950 12:00,1035.50
6/21/1950 12:00,1035.50
6/22/1950 12:00,1035.50
6/23/1950 12:00,1035.50
6/24/1950 12:00,1035.50
6/25/1950 12:00,1035.57
6/26/1950 12:00,1035.67
6/27/1950 12:00,1035.67
6/28/1950 12:00,1035.67
6/29/1950 12:00,1035.67
6/30/1950 12:00,1035.75
7/1/1950 12:00,1035.74
7/2/1950 12:00,1035.74
7/3/1950 12:00,1035.72
7/4/1950 12:00,1035.68
7/5/1950 12:00,1035.68
7/6/1950 12:00,1035.68
7/7/1950 12:00,1035.72
7/8/1950 12:00,1035.72
7/9/1950 12:00,1035.73
7/10/1950 12:00,1035.52
7/11/1950 12:00,1035.52
7/12/1950 12:00,1035.50
7/13/1950 12:00,1035.50
7/14/1950 12:00,1035.50
7/15/1950 12:00,1035.50
7/16/1950 12:00,1035.50
7/17/1950 12:00,1035.50
7/18/1950 12:00,1035.50
7/19/1950 12:00,1035.51
7/20/1950 12:00,1035.51
7/21/1950 12:00,1035.51
7/22/1950 12:00,1035.48
7/23/1950 12:00,1035.46
7/24/1950 12:00,1035.43
7/25/1950 12:00,1035.46
7/26/1950 12:00,1035.48
7/27/1950 12:00,1035.46
7/28/1950 12:00,1035.46
7/29/1950 12:00,1035.44
7/30/1950 12:00,1036.13
7/31/1950 12:00,1036.37
8/1/1950 12:00,1042.78
8/2/1950 12:00,1035.84
8/3/1950 12:00,1035.48
8/4/1950 12:00,1035.51
8/5/1950 12:00,1037.52
8/6/1950 12:00,1039.52
8/7/1950 12:00,1041.52
8/8/1950 12:00,1042.67
8/9/1950 12:00,1043.62
8/10/1950 12:00,1043.97
8/11/1950 12:00,1044.37
8/12/1950 12:00,1044.63
8/13/1950 12:00,1044.60
8/14/1950 12:00,1044.57
8/15/1950 12:00,1045.04
8/16/1950 12:00,1045.12
8/17/1950 12:00,1045.17
8/18/1950 12:00,1045.42
8/19/1950 12:00,1045.57
8/20/1950 12:00,1045.65
8/21/1950 12:00,1045.78
8/22/1950 12:00,1046.04
8/23/1950 12:00,1046.12
8/24/1950 12:00,1046.15
8/25/1950 12:00,1046.22
8/26/1950 12:00,1046.22
8/27/1950 12:00,1046.25
8/28/1950 12:00,1046.22
8/29/1950 12:00,1046.20
8/30/1950 12:00,1046.19
8/31/1950 12:00,1046.19
9/1/1950 12:00,1046.20
9/2/1950 12:00,1046.33
9/3/1950 12:00,1046.42
9/4/1950 12:00,1046.54
9/5/1950 12:00,1046.60
9/6/1950 12:00,1046.74
9/7/1950 12:00,1046.83
9/8/1950 12:00,1046.92
9/9/1950 12:00,1047.02
9/10/1950 12:00,1047.49
9/11/1950 12:00,1048.04
9/12/1950 12:00,1048.04
9/13/1950 12:00,1048.04
9/14/1950 12:00,1048.04
9/15/1950 12:00,1048.04
9/16/1950 12:00,1048.04
9/17/1950 12:00,1048.04
9/18/1950 12:00,1048.04
9/19/1950 12:00,1048.60
9/20/1950 12:00,1048.69
9/21/1950 12:00,1048.74
9/22/1950 12:00,1048.46
9/23/1950 12:00,1048.32
9/24/1950 12:00,1048.27
9/25/1950 12:00,1048.27
9/26/1950 12:00,1048.27
9/27/1950 12:00,1048.35
9/28/1950 12:00,1048.35
9/29/1950 12:00,1048.35
9/30/1950 12:00,1048.35
10/1/1950 12:00,1048.35
10/2/1950 12:00,1048.63
10/3/1950 12:00,1048.75
10/4/1950 12:00,1048.79
10/5/1950 12:00,1048.59
10/6/1950 12:00,1048.57
10/7/1950 12:00,1048.64
10/8/1950 12:00,1048.70
10/9/1950 12:00,1048.74
10/10/1950 12:00,1048.74
10/11/1950 12:00,1048.76
10/12/1950 12:00,1048.80
10/13/1950 12:00,1048.82
10/14/1950 12:00,1048.82
10/15/1950 12:00,1048.87
10/16/1950 12:00,1049.02
10/17/1950 12:00,1048.98
10/18/1950 12:00,1049.04
10/19/1950 12:00,1049.07
10/20/1950 12:00,1049.10
10/21/1950 12:00,1049.10
10/22/1950 12:00,1049.12
10/23/1950 12:00,1049.15
10/24/1950 12:00,1048.04
10/25/1950 12:00,1048.03
10/26/1950 12:00,1048.03
10/27/1950 12:00,1048.03
10/28/1950 12:00,1048.02
10/29/1950 12:00,1048.03
10/30/1950 12:00,1048.04
10/31/1950 12:00,1048.05
11/1/1950 12:00,1048.08
11/2/1950 12:00,1048.39
11/3/1950 12:00,1048.27
11/4/1950 12:00,1049.14
11/5/1950 12:00,1049.10
11/6/1950 12:00,1048.64
11/7/1950 12:00,1049.31
11/8/1950 12:00,1048.57
11/9/1950 12:00,1048.13
11/10/1950 12:00,1049.34
11/11/1950 12:00,1049.32
11/12/1950 12:00,1049.31
11/13/1950 12:00,1049.32
11/14/1950 12:00,1049.33
11/15/1950 12:00,1049.33
11/16/1950 12:00,1049.33
11/17/1950 12:00,1049.36
11/18/1950 12:00,1049.37
11/19/1950 12:00,1049.36
11/20/1950 12:00,1049.35
11/21/1950 12:00,1049.37
11/22/1950 12:00,1049.37
11/23/1950 12:00,1049.37
11/24/1950 12:00,1049.37
11/25/1950 12:00,1049.36
11/26/1950 12:00,1049.36
11/27/1950 12:00,1049.37
11/28/1950 12:00,1049.37
11/29/1950 12:00,1049.37
11/30/1950 12:00,1049.37
12/1/1950 12:00,1049.37
12/2/1950 12:00,1049.36
12/3/1950 12:00,1049.36
12/4/1950 12:00,1049.36
12/5/1950 12:00,1049.36
12/6/1950 12:00,1049.36
12/7/1950 12:00,1049.37
12/8/1950 12:00,1049.37
12/9/1950 12:00,1049.36
12/10/1950 12:00,1049.36
12/11/1950 12:00,1049.37
12/12/1950 12:00,1049.37
12/13/1950 12:00,1049.37
12/14/1950 12:00,1049.37
12/15/1950 12:00,1049.37
12/16/1950 12:00,1049.36
12/17/1950 12:00,1049.36
12/18/1950 12:00,1049.36
12/19/1950 12:00,1049.36
12/20/1950 12:00,1049.36
12/21/1950 12:00,1049.36
12/22/1950 12:00,1049.36
12/23/1950 12:00,1049.36
12/24/1950 12:00,1049.36
12/25/1950 12:00,1049.36
12/26/1950 12:00,1049.36
12/27/1950 12:00,1049.36
12/28/1950 12:00,1049.36
12/29/1950 12:00,1049.36
12/30/1950 12:00,1049.36
12/31/1950 12:00,1049.36
1/1/1951 12:00,1049.36
1/2/1951 12:00,1049.36
1/3/1951 12:00,1049.36
1/4/1951 12:00,1049.36
1/5/1951 12:00,1049.36
1/6/1951 12:00,1049.36
1/7/1951 12:00,1049.36
1/8/1951 12:00,1049.36
1/9/1951 12:00,1049.36
1/10/1951 12:00,1049.36
1/11/1951 12:00,1049.36
1/12/1951 12:00,1049.36
1/13/1951 12:00,1049.36
1/14/1951 12:00,1049.36
1/15/1951 12:00,1049.36
1/16/1951 12:00,1049.36
1/17/1951 12:00,1049.36
1/18/1951 12:00,1049.36
1/19/1951 12:00,1049.36
1/20/1951 12:00,1049.36
1/21/1951 12:00,1049.36
1/22/1951 12:00,1049.36
1/23/1951 12:00,1049.36
1/24/1951 12:00,1049.36
1/25/1951 12:00,1049.36
1/26/1951 12:00,1049.36
1/27/1951 12:00,1049.36
1/28/1951 12:00,1049.36
1/29/1951 12:00,1049.36
1/30/1951 12:00,1049.36
1/31/1951 12:00,1049.36
2/1/1951 12:00,1049.36
2/2/1951 12:00,1049.36
2/3/1951 12:00,1049.36
2/4/1951 12:00,1049.36
2/5/1951 12:00,1049.36
2/6/1951 12:00,1049.36
2/7/1951 12:00,1049.36
2/8/1951 12:00,1049.36
2/9/1951 12:00,1049.36
2/10/1951 12:00,1049.36
2/11/1951 12:00,1049.36
2/12/1951 12:00,1049.36
2/13/1951 12:00,1049.36
2/14/1951 12:00,1049.36
2/15/1951 12:00,1049.36
2/16/1951 12:00,1049.36
2/17/1951 12:00,1049.36
2/18/1951 12:00,1049.36
2/19/1951 12:00,1049.36
2/20/1951 12:00,1049.36
2/21/1951 12:00,1049.36
2/22/1951 12:00,1049.36
2/23/1951 12:00,1049.36
2/24/1951 12:00,1049.36
2/25/1951 12:00,1049.36
2/26/1951 12:00,1049.36
2/27/1951 12:00,1049.36
2/28/1951 12:00,1049.36
3/1/1951 12:00,1049.36
3/2/1951 12:00,1049.36
3/3/1951 12:00,1049.36
3/4/1951 12:00,1049.36
3/5/1951 12:00,1049.36
3/6/1951 12:00,1049.36
3/7/1951 12:00,1049.36
3/8/1951 12:00,1049.36
3/9/1951 12:00,1049.36
3/10/1951 12:00,1049.36
3/11/1951 12:00,1049.36
3/12/1951 12:00,1049.36
3/13/1951 12:00,1049.36
3/14/1951 12:00,1049.36
3/15/1951 12:00,1049.36
3/16/1951 12:00,1049.36
3/17/1951 12:00,1049.36
3/18/1951 12:00,1049.36
3/19/1951 12:00,1049.36
3/20/1951 12:00,1049.36
3/21/1951 12:00,1049.36
3/22/1951 12:00,1049.36
3/23/1951 12:00,1049.36
3/24/1951 12:00,1049.36
3/25/1951 12:00,1049.36
3/26/1951 12:00,1049.36
3/27/1951 12:00,1049.30
3/28/1951 12:00,1054.60
3/29/1951 12:00,1058.90
3/30/1951 12:00,1062.00
3/31/1951 12:00,1064.20
4/1/1951 12:00,1066.25
4/2/1951 12:00,1068.30
4/3/1951 12:00,1072.06
4/4/1951 12:00,1077.63
4/5/1951 12:00,1079.51
4/6/1951 12:00,1079.52
4/7/1951 12:00,1078.96
4/8/1951 12:00,1079.07
4/9/1951 12:00,1079.10
4/10/1951 12:00,1079.25
4/11/1951 12:00,1078.54
4/12/1951 12:00,1078.40
4/13/1951 12:00,1078.50
4/14/1951 12:00,1078.54
4/15/1951 12:00,1078.63
4/16/1951 12:00,1078.62
4/17/1951 12:00,1078.89
4/18/1951 12:00,1079.08
4/19/1951 12:00,1079.31
4/20/1951 12:00,1079.53
4/21/1951 12:00,1079.77
4/22/1951 12:00,1079.98
4/23/1951 12:00,1080.14
4/24/1951 12:00,1080.33
4/25/1951 12:00,1080.48
4/26/1951 12:00,1080.56
4/27/1951 12:00,1080.45
4/28/1951 12:00,1080.41
4/29/1951 12:00,1080.42
4/30/1951 12:00,1080.40
5/1/1951 12:00,1080.39
5/2/1951 12:00,1080.38
5/3/1951 12:00,1080.36
5/4/1951 12:00,1080.31
5/5/1951 12:00,1080.25
5/6/1951 12:00,1080.19
5/7/1951 12:00,1080.26
5/8/1951 12:00,1080.27
5/9/1951 12:00,1080.27
5/10/1951 12:00,1080.27
5/11/1951 12:00,1080.26
5/12/1951 12:00,1080.25
5/13/1951 12:00,1080.25
5/14/1951 12:00,1080.24
5/15/1951 12:00,1080.24
5/16/1951 12:00,1080.22
5/17/1951 12:00,1080.22
5/18/1951 12:00,1080.22
5/19/1951 12:00,1080.22
5/20/1951 12:00,1080.17
5/21/1951 12:00,1080.16
5/22/1951 12:00,1080.19
5/23/1951 12:00,1080.17
5/24/1951 12:00,1080.17
5/25/1951 12:00,1080.10
5/26/1951 12:00,1080.10
5/27/1951 12:00,1080.04
5/28/1951 12:00,1080.05
5/29/1951 12:00,1080.05
5/30/1951 12:00,1079.98
5/31/1951 12:00,1079.98
6/1/1951 12:00,1079.98
6/2/1951 12:00,1079.98
6/3/1951 12:00,1080.13
6/4/1951 12:00,1080.15
6/5/1951 12:00,1080.15
6/6/1951 12:00,1080.15
6/7/1951 12:00,1080.19
6/8/1951 12:00,1080.17
6/9/1951 12:00,1080.11
6/10/1951 12:00,1080.11
6/11/1951 12:00,1080.14
6/12/1951 12:00,1080.14
6/13/1951 12:00,1080.14
6/14/1951 12:00,1080.13
6/15/1951 12:00,1080.13
6/16/1951 12:00,1080.11
6/17/1951 12:00,1080.09
6/18/1951 12:00,1080.07
6/19/1951 12:00,1080.08
6/20/1951 12:00,1080.07
6/21/1951 12:00,1080.07
6/22/1951 12:00,1080.07
6/23/1951 12:00,1080.07
6/24/1951 12:00,1080.07
6/25/1951 12:00,1080.07
6/26/1951 12:00,1080.08
6/27/1951 12:00,1080.05
6/28/1951 12:00,1079.97
6/29/1951 12:00,1079.90
6/30/1951 12:00,1079.88
7/1/1951 12:00,1079.88
7/2/1951 12:00,1079.88
7/3/1951 12:00,1079.87
7/4/1951 12:00,1079.87
7/5/1951 12:00,1079.86
7/6/1951 12:00,1079.86
7/7/1951 12:00,1079.86
7/8/1951 12:00,1079.85
7/9/1951 12:00,1079.83
7/10/1951 12:00,1079.88
7/11/1951 12:00,1079.80
7/12/1951 12:00,1079.76
7/13/1951 12:00,1079.75
7/14/1951 12:00,1079.74
7/15/1951 12:00,1079.71
7/16/1951 12:00,1079.70
7/17/1951 12:00,1079.69
7/18/1951 12:00,1079.68
7/19/1951 12:00,1079.65
7/20/1951 12:00,1079.65
7/21/1951 12:00,1079.63
7/22/1951 12:00,1079.60
7/23/1951 12:00,1079.60
7/24/1951 12:00,1079.58
7/25/1951 12:00,1079.57
7/26/1951 12:00,1079.58
7/27/1951 12:00,1079.57
7/28/1951 12:00,1079.57
7/29/1951 12:00,1079.57
7/30/1951 12:00,1079.64
7/31/1951 12:00,1079.65
8/1/1951 12:00,1079.65
8/2/1951 12:00,1079.64
8/3/1951 12:00,1079.61
8/4/1951 12:00,1079.59
8/5/1951 12:00,1079.65
8/6/1951 12:00,1079.69
8/7/1951 12:00,1079.71
8/8/1951 12:00,1079.71
8/9/1951 12:00,1079.68
8/10/1951 12:00,1079.73
8/11/1951 12:00,1079.71
8/12/1951 12:00,1079.70
8/13/1951 12:00,1079.71
8/14/1951 12:00,1079.72
8/15/1951 12:00,1079.73
8/16/1951 12:00,1079.77
8/17/1951 12:00,1079.79
8/18/1951 12:00,1079.80
8/19/1951 12:00,1079.79
8/20/1951 12:00,1079.82
8/21/1951 12:00,1079.82
8/22/1951 12:00,1079.83
8/23/1951 12:00,1079.83
8/24/1951 12:00,1079.81
8/25/1951 12:00,1079.93
8/26/1951 12:00,1079.93
8/27/1951 12:00,1079.92
8/28/1951 12:00,1079.92
8/29/1951 12:00,1079.87
8/30/1951 12:00,1079.86
8/31/1951 12:00,1079.96
9/1/1951 12:00,1079.96
9/2/1951 12:00,1079.94
9/3/1951 12:00,1079.92
9/4/1951 12:00,1079.90
9/5/1951 12:00,1079.91
9/6/1951 12:00,1079.88
9/7/1951 12:00,1079.87
9/8/1951 12:00,1079.85
9/9/1951 12:00,1079.82
9/10/1951 12:00,1079.79
9/11/1951 12:00,1079.76
9/12/1951 12:00,1079.74
9/13/1951 12:00,1079.19
9/14/1951 12:00,1078.25
9/15/1951 12:00,1078.01
9/16/1951 12:00,1078.00
9/17/1951 12:00,1077.98
9/18/1951 12:00,1077.94
9/19/1951 12:00,1077.95
9/20/1951 12:00,1077.94
9/21/1951 12:00,1077.92
9/22/1951 12:00,1077.90
9/23/1951 12:00,1077.87
9/24/1951 12:00,1075.70
9/25/1951 12:00,1074.44
9/26/1951 12:00,1073.50
9/27/1951 12:00,1072.17
9/28/1951 12:00,1070.74
9/29/1951 12:00,1069.13
9/30/1951 12:00,1067.48
10/1/1951 12:00,1065.87
10/2/1951 12:00,1063.95
10/3/1951 12:00,1061.98
10/4/1951 12:00,1059.80
10/5/1951 12:00,1057.52
10/6/1951 12:00,1055.27
10/7/1951 12:00,1053.92
10/8/1951 12:00,1053.28
10/9/1951 12:00,1053.24
10/10/1951 12:00,1053.36
10/11/1951 12:00,1053.48
10/12/1951 12:00,1053.60
10/13/1951 12:00,1053.52
10/14/1951 12:00,1053.47
10/15/1951 12:00,1053.38
10/16/1951 12:00,1053.20
10/17/1951 12:00,1053.15
10/18/1951 12:00,1053.16
10/19/1951 12:00,1053.06
10/20/1951 12:00,1053.12
10/21/1951 12:00,1053.19
10/22/1951 12:00,1053.22
10/23/1951 12:00,1053.29
10/24/1951 12:00,1053.27
10/25/1951 12:00,1053.25
10/26/1951 12:00,1053.22
10/27/1951 12:00,1053.20
10/28/1951 12:00,1053.17
10/29/1951 12:00,1053.17
10/30/1951 12:00,1053.14
10/31/1951 12:00,1053.10
11/1/1951 12:00,1053.08
11/2/1951 12:00,1053.05
11/3/1951 12:00,1053.05
11/4/1951 12:00,1053.05
11/5/1951 12:00,1053.05
11/6/1951 12:00,1053.04
11/7/1951 12:00,1053.05
11/8/1951 12:00,1053.05
11/9/1951 12:00,1053.02
11/10/1951 12:00,1053.02
11/11/1951 12:00,1053.08
11/12/1951 12:00,1053.15
11/13/1951 12:00,1053.12
11/14/1951 12:00,1053.24
11/15/1951 12:00,1053.28
11/16/1951 12:00,1053.30
11/17/1951 12:00,1053.30
11/18/1951 12:00,1053.29
11/19/1951 12:00,1053.29
11/20/1951 12:00,1053.30
11/21/1951 12:00,1053.28
11/22/1951 12:00,1053.27
11/23/1951 12:00,1053.26
11/24/1951 12:00,1053.26
11/25/1951 12:00,1053.26
11/26/1951 12:00,1053.26
11/27/1951 12:00,1053.26
11/28/1951 12:00,1053.26
11/29/1951 12:00,1053.26
11/30/1951 12:00,1053.25
12/1/1951 12:00,1053.25
12/2/1951 12:00,1053.27
12/3/1951 12:00,1053.30
12/4/1951 12:00,1053.36
12/5/1951 12:00,1053.44
12/6/1951 12:00,1053.52
12/7/1951 12:00,1053.57
12/8/1951 12:00,1053.57
12/9/1951 12:00,1053.57
12/10/1951 12:00,1053.57
12/11/1951 12:00,1053.57
12/12/1951 12:00,1053.57
12/13/1951 12:00,1053.57
12/14/1951 12:00,1053.57
12/15/1951 12:00,1053.57
12/16/1951 12:00,1053.57
12/17/1951 12:00,1053.57
12/18/1951 12:00,1053.57
12/19/1951 12:00,1053.57
12/20/1951 12:00,1053.57
12/21/1951 12:00,1053.57
12/22/1951 12:00,1053.57
12/23/1951 12:00,1053.57
12/24/1951 12:00,1053.57
12/25/1951 12:00,1053.57
12/26/1951 12:00,1053.57
12/27/1951 12:00,1053.57
12/28/1951 12:00,1053.57
12/29/1951 12:00,1053.57
12/30/1951 12:00,1053.57
12/31/1951 12:00,1053.57
1/1/1952 12:00,1053.57
1/2/1952 12:00,1053.55
1/3/1952 12:00,1053.47
1/4/1952 12:00,1053.40
1/5/1952 12:00,1053.32
1/6/1952 12:00,1053.25
1/7/1952 12:00,1053.17
1/8/1952 12:00,1053.10
1/9/1952 12:00,1053.02
1/10/1952 12:00,1052.95
1/11/1952 12:00,1052.87
1/12/1952 12:00,1052.80
1/13/1952 12:00,1052.72
1/14/1952 12:00,1052.64
1/15/1952 12:00,1052.57
1/16/1952 12:00,1052.49
1/17/1952 12:00,1052.42
1/18/1952 12:00,1052.34
1/19/1952 12:00,1052.27
1/20/1952 12:00,1052.19
1/21/1952 12:00,1052.12
1/22/1952 12:00,1052.04
1/23/1952 12:00,1051.97
1/24/1952 12:00,1051.89
1/25/1952 12:00,1051.82
1/26/1952 12:00,1051.74
1/27/1952 12:00,1051.66
1/28/1952 12:00,1051.59
1/29/1952 12:00,1051.51
1/30/1952 12:00,1051.44
1/31/1952 12:00,1051.36
2/1/1952 12:00,1051.35
2/2/1952 12:00,1051.34
2/3/1952 12:00,1051.36
2/4/1952 12:00,1051.35
2/5/1952 12:00,1051.32
2/6/1952 12:00,1051.28
2/7/1952 12:00,1051.22
2/8/1952 12:00,1051.22
2/9/1952 12:00,1051.19
2/10/1952 12:00,1051.20
2/11/1952 12:00,1051.20
2/12/1952 12:00,1051.18
2/13/1952 12:00,1051.19
2/14/1952 12:00,1051.24
2/15/1952 12:00,1051.27
2/16/1952 12:00,1051.32
2/17/1952 12:00,1051.44
2/18/1952 12:00,1051.57
2/19/1952 12:00,1051.66
2/20/1952 12:00,1051.75
2/21/1952 12:00,1051.83
2/22/1952 12:00,1051.83
2/23/1952 12:00,1051.82
2/24/1952 12:00,1051.82
2/25/1952 12:00,1051.82
2/26/1952 12:00,1051.82
2/27/1952 12:00,1051.82
2/28/1952 12:00,1051.81
2/29/1952 12:00,1051.81
3/1/1952 12:00,1051.80
3/2/1952 12:00,1051.81
3/3/1952 12:00,1051.81
3/4/1952 12:00,1051.81
3/5/1952 12:00,1051.81
3/6/1952 12:00,1051.81
3/7/1952 12:00,1051.82
3/8/1952 12:00,1051.81
3/9/1952 12:00,1051.81
3/10/1952 12:00,1051.81
3/11/1952 12:00,1051.82
3/12/1952 12:00,1051.82
3/13/1952 12:00,1051.82
3/14/1952 12:00,1051.83
3/15/1952 12:00,1051.83
3/16/1952 12:00,1051.84
3/17/1952 12:00,1051.83
3/18/1952 12:00,1051.83
3/19/1952 12:00,1051.83
3/20/1952 12:00,1051.83
3/21/1952 12:00,1051.83
3/22/1952 12:00,1051.83
3/23/1952 12:00,1051.83
3/24/1952 12:00,1051.84
3/25/1952 12:00,1051.84
3/26/1952 12:00,1051.84
3/27/1952 12:00,1051.83
3/28/1952 12:00,1051.83
3/29/1952 12:00,1051.83
3/30/1952 12:00,1051.83
3/31/1952 12:00,1051.83
4/1/1952 12:00,1064.95
4/2/1952 12:00,1069.50
4/3/1952 12:00,1070.30
4/4/1952 12:00,1071.01
4/5/1952 12:00,1071.60
4/6/1952 12:00,1072.01
4/7/1952 12:00,1072.80
4/8/1952 12:00,1073.53
4/9/1952 12:00,1074.40
4/10/1952 12:00,1074.50
4/11/1952 12:00,1074.80
4/12/1952 12:00,1075.05
4/13/1952 12:00,1075.27